SQ9NFI-4 Weather Reports


Display with metric or nautical units.
time (UTC)temp
F
wind
direction
speed
MPH
gust
MPH
rain 1hr
in
rain 24hr
in
rain mn
in
humidity
%
barometer
mb
20260508200244 52 346 1.0 1.0 0.00 0.00 0.66 83 1020.0
20260508195743 52 346 0.0 0.0 0.00 0.00 0.66 83 1020.0
20260508195243 52 356 0.0 0.0 0.00 0.00 0.66 83 1020.0
20260508194744 52 335 0.0 0.0 0.00 0.00 0.66 83 1020.0
20260508194243 52 348 1.0 2.0 0.00 0.00 0.66 82 1020.0
20260508193743 52 335 0.0 1.0 0.00 0.00 0.66 83 1020.0
20260508193243 52 323 1.0 1.0 0.00 0.00 0.66 83 1020.0
20260508192743 52 342 1.0 2.0 0.00 0.00 0.66 82 1020.0
20260508192243 53 338 2.0 3.0 0.00 0.00 0.66 82 1020.0
20260508191743 52 21 0.0 0.0 0.00 0.00 0.66 82 1020.0
20260508191243 52 330 1.0 3.0 0.00 0.00 0.66 82 1019.6
20260508190743 53 0 0.0 1.0 0.00 0.00 0.66 81 1019.6
20260508190243 53 340 0.0 0.0 0.00 0.00 0.66 81 1019.6
20260508185743 53 343 3.0 3.0 0.00 0.00 0.66 80 1019.6
20260508185243 53 341 1.0 4.0 0.00 0.00 0.66 80 1019.6
20260508184743 53 358 1.0 1.0 0.00 0.00 0.66 80 1019.6
20260508184243 53 344 1.0 2.0 0.00 0.00 0.66 80 1019.6
20260508183743 53 340 1.0 1.0 0.00 0.00 0.66 81 1019.3
20260508183243 53 353 2.0 2.0 0.00 0.00 0.66 80 1019.3
20260508182743 53 350 1.0 1.0 0.00 0.00 0.66 79 1019.3
20260508182243 53 350 1.0 1.0 0.00 0.00 0.66 80 1019.3
20260508181743 54 342 2.0 3.0 0.00 0.00 0.66 80 1019.3
20260508181243 54 7 3.0 3.0 0.00 0.00 0.66 80 1019.0
20260508180743 54 346 0.0 1.0 0.00 0.00 0.66 80 1019.0
20260508180243 54 356 3.0 3.0 0.00 0.00 0.66 78 1019.0
20260508175743 54 338 4.0 4.0 0.00 0.00 0.66 78 1019.0
20260508175243 54 335 0.0 0.0 0.00 0.00 0.66 81 1019.0
20260508174743 55 345 1.0 1.0 0.00 0.00 0.66 80 1019.0
20260508174244 55 349 0.0 2.0 0.00 0.00 0.66 78 1019.0
20260508173743 55 334 6.0 6.0 0.00 0.00 0.66 76 1018.3
20260508173243 56 341 1.0 1.0 0.00 0.00 0.66 76 1018.3
20260508172743 56 340 1.0 1.0 0.00 0.00 0.66 75 1018.3
20260508172243 56 345 1.0 2.0 0.00 0.00 0.66 74 1018.3
20260508171743 56 340 1.0 1.0 0.00 0.00 0.66 74 1018.3
20260508171243 56 350 1.0 1.0 0.00 0.00 0.66 73 1018.3
20260508170743 56 330 5.0 7.0 0.00 0.00 0.66 72 1018.3
20260508170243 56 310 3.0 4.0 0.00 0.00 0.66 73 1018.3
20260508165743 56 327 4.0 4.0 0.00 0.00 0.66 72 1018.3
20260508165243 56 4 2.0 4.0 0.00 0.00 0.66 73 1018.3
20260508164743 57 332 1.0 1.0 0.00 0.00 0.66 73 1018.3
20260508164243 57 339 1.0 1.0 0.00 0.00 0.66 73 1018.3
20260508163743 56 336 2.0 2.0 0.00 0.00 0.66 71 1018.0
20260508163243 56 332 3.0 3.0 0.00 0.00 0.66 72 1018.0
20260508162743 56 335 5.0 6.0 0.00 0.00 0.66 71 1018.0
20260508162243 57 343 0.0 1.0 0.00 0.00 0.66 73 1018.0
20260508161743 57 335 3.0 4.0 0.00 0.00 0.66 72 1018.0
20260508161243 58 333 2.0 2.0 0.00 0.00 0.66 74 1018.3
20260508160743 58 316 3.0 3.0 0.00 0.00 0.66 71 1018.3
20260508160243 58 332 2.0 4.0 0.00 0.00 0.66 70 1018.3
20260508155743 56 338 1.0 2.0 0.00 0.00 0.66 74 1018.3
20260508155243 56 332 1.0 1.0 0.00 0.00 0.66 76 1018.3
20260508154743 56 340 1.0 1.0 0.00 0.00 0.66 75 1018.3
20260508154243 56 339 2.0 2.0 0.00 0.00 0.66 73 1018.3
20260508153743 57 347 1.0 1.0 0.00 0.00 0.66 74 1018.3
20260508153243 56 359 2.0 2.0 0.00 0.00 0.66 74 1018.3
20260508152743 57 355 2.0 3.0 0.00 0.00 0.66 72 1018.3
20260508152243 57 337 2.0 2.0 0.00 0.00 0.66 71 1018.0
20260508151743 57 356 2.0 4.0 0.00 0.00 0.66 71 1018.0
20260508151243 57 312 7.0 7.0 0.00 0.00 0.66 71 1018.0
20260508150743 58 316 2.0 4.0 0.00 0.00 0.66 71 1018.0
20260508150243 58 336 4.0 5.0 0.00 0.00 0.66 69 1018.0
20260508145743 58 344 2.0 2.0 0.00 0.00 0.66 70 1018.0
20260508145243 58 315 3.0 4.0 0.00 0.00 0.66 72 1018.0
20260508144743 58 347 2.0 7.0 0.00 0.00 0.66 72 1018.3
20260508144243 58 343 3.0 5.0 0.00 0.00 0.66 71 1018.3
20260508143743 57 334 6.0 6.0 0.00 0.00 0.66 74 1018.3
20260508143243 57 318 3.0 6.0 0.00 0.00 0.66 72 1018.3
20260508142743 57 287 5.0 6.0 0.00 0.00 0.66 72 1018.3
20260508142243 57 331 1.0 2.0 0.00 0.00 0.66 72 1018.3
20260508141743 57 332 1.0 4.0 0.00 0.00 0.66 72 1018.3
20260508141243 57 343 6.0 6.0 0.00 0.00 0.66 72 1018.0
20260508140743 57 344 4.0 6.0 0.00 0.00 0.66 74 1018.0
20260508140243 57 337 5.0 6.0 0.00 0.00 0.66 75 1018.0
20260508135743 57 341 5.0 9.0 0.00 0.00 0.66 74 1018.0
20260508135243 57 338 1.0 3.0 0.00 0.00 0.66 73 1018.0
20260508134743 57 353 2.0 4.0 0.00 0.00 0.66 72 1018.0
20260508134243 57 338 3.0 4.0 0.00 0.00 0.66 71 1018.0
20260508133743 57 324 8.0 8.0 0.00 0.00 0.66 75 1018.3
20260508133243 56 329 4.0 5.0 0.00 0.00 0.66 78 1018.3
20260508132743 56 323 4.0 6.0 0.00 0.00 0.66 76 1018.3
20260508132243 57 334 4.0 6.0 0.00 0.00 0.66 77 1018.3
20260508131743 56 331 5.0 7.0 0.00 0.00 0.66 76 1018.3
20260508131243 55 302 4.0 6.0 0.00 0.00 0.66 77 1019.0
20260508130743 55 323 5.0 10.0 0.00 0.00 0.66 78 1019.0
20260508130243 55 337 4.0 4.0 0.00 0.00 0.66 78 1019.0
20260508125743 55 341 3.0 5.0 0.00 0.00 0.66 79 1019.0
20260508125243 55 331 8.0 10.0 0.00 0.00 0.66 79 1019.0
20260508124743 55 318 4.0 5.0 0.00 0.00 0.66 80 1019.0
20260508124243 55 352 3.0 6.0 0.00 0.00 0.66 78 1019.0
20260508123743 55 339 6.0 6.0 0.00 0.00 0.66 78 1018.3
20260508123243 54 346 6.0 7.0 0.00 0.00 0.66 79 1018.3
20260508122743 54 298 4.0 4.0 0.00 0.00 0.66 81 1018.3
20260508122243 53 288 6.0 10.0 0.00 0.00 0.66 83 1019.0
20260508121743 54 315 5.0 6.0 0.00 0.00 0.66 83 1019.0
20260508121243 53 340 2.0 6.0 0.00 0.00 0.66 83 1019.0
20260508120743 54 308 4.0 6.0 0.00 0.00 0.66 85 1019.0
20260508120243 53 348 4.0 6.0 0.00 0.00 0.66 83 1019.0
20260508115743 53 357 3.0 6.0 0.00 0.00 0.66 85 1018.3
20260508115243 53 319 4.0 5.0 0.00 0.00 0.66 86 1018.3
20260508114743 53 330 6.0 12.0 0.00 0.00 0.66 85 1019.0
20260508114243 53 322 6.0 6.0 0.00 0.00 0.66 86 1019.0
20260508113743 53 337 7.0 8.0 0.00 0.00 0.66 85 1018.3
20260508113244 53 340 5.0 6.0 0.00 0.00 0.66 85 1018.3
20260508112743 53 329 8.0 8.0 0.00 0.00 0.66 85 1018.3
20260508112243 54 334 3.0 5.0 0.00 0.00 0.66 86 1018.0
20260508111743 54 317 3.0 3.0 0.00 0.00 0.66 85 1018.0
20260508110743 53 288 1.0 2.0 0.00 0.00 0.66 85 1018.3
20260508110243 53 326 2.0 2.0 0.00 0.00 0.66 87 1018.3
20260508105743 53 343 7.0 10.0 0.00 0.00 0.66 88 1018.3
20260508105243 53 356 5.0 5.0 0.00 0.00 0.66 88 1018.3
20260508104743 52 342 6.0 6.0 0.00 0.00 0.66 90 1018.3
20260508104243 52 330 4.0 8.0 0.00 0.00 0.66 90 1018.3
20260508103743 53 314 4.0 6.0 0.00 0.00 0.66 89 1018.3
20260508103243 53 342 8.0 8.0 0.00 0.00 0.66 89 1018.3
20260508102743 52 347 2.0 6.0 0.00 0.00 0.66 92 1018.3
20260508102243 52 340 6.0 7.0 0.00 0.00 0.66 92 1018.0
20260508101743 52 359 9.0 10.0 0.00 0.00 0.66 91 1018.0
20260508101243 52 322 8.0 8.0 0.00 0.00 0.66 91 1018.0
20260508100743 52 331 7.0 7.0 0.00 0.00 0.66 91 1018.0
20260508100243 53 345 6.0 6.0 0.00 0.00 0.66 91 1018.0
20260508095743 52 303 4.0 6.0 0.00 0.00 0.66 92 1018.3
20260508095243 52 324 4.0 8.0 0.00 0.00 0.66 92 1018.3
20260508094743 53 359 5.0 6.0 0.00 0.00 0.66 90 1018.0
20260508094243 52 331 4.0 6.0 0.00 0.00 0.66 90 1018.0
20260508093743 52 330 4.0 6.0 0.00 0.00 0.66 92 1018.0
20260508093243 52 320 8.0 10.0 0.00 0.00 0.66 90 1018.0
20260508092743 52 329 3.0 4.0 0.00 0.00 0.66 91 1018.0
20260508092243 52 312 4.0 6.0 0.00 0.00 0.66 92 1018.0
20260508091743 52 343 4.0 5.0 0.00 0.00 0.66 91 1018.0
20260508091243 52 334 1.0 1.0 0.00 0.00 0.66 91 1018.0
20260508090743 52 293 6.0 6.0 0.00 0.00 0.66 91 1018.0
20260508090243 52 0 4.0 4.0 0.00 0.00 0.66 92 1018.0
20260508085743 51 332 3.0 6.0 0.00 0.00 0.66 92 1018.0
20260508085243 51 319 3.0 3.0 0.00 0.00 0.66 94 1018.0
20260508084743 51 331 4.0 4.0 0.00 0.00 0.66 95 1018.0
20260508084243 51 320 3.0 4.0 0.00 0.00 0.66 94 1018.0
20260508083743 51 326 4.0 5.0 0.00 0.00 0.66 95 1018.0
20260508083243 51 341 3.0 4.0 0.00 0.00 0.66 95 1018.0
20260508082743 51 338 3.0 3.0 0.00 0.00 0.66 94 1018.0
20260508082243 51 333 7.0 7.0 0.00 0.00 0.66 93 1017.6
20260508081743 51 351 4.0 4.0 0.00 0.00 0.66 94 1017.6
20260508081243 51 344 5.0 9.0 0.00 0.00 0.66 94 1017.6
20260508080743 51 0 3.0 4.0 0.00 0.00 0.66 94 1017.6
20260508080243 51 341 3.0 3.0 0.00 0.00 0.66 94 1017.6
20260508075743 51 346 1.0 1.0 0.00 0.00 0.66 94 1017.3
20260508075243 51 346 2.0 2.0 0.00 0.00 0.66 95 1017.3
20260508074743 51 28 0.0 1.0 0.00 0.00 0.66 95 1017.3
20260508074243 51 339 4.0 6.0 0.00 0.00 0.66 95 1017.3
20260508073743 51 348 3.0 3.0 0.00 0.00 0.66 95 1017.3
20260508072743 51 343 2.0 6.0 0.00 0.00 0.66 95 1017.3
20260508072243 51 338 3.0 3.0 0.00 0.00 0.66 95 1017.3
20260508071743 51 0 6.0 9.0 0.00 0.00 0.66 95 1017.3
20260508071243 51 326 7.0 9.0 0.00 0.00 0.66 95 1017.3
20260508070743 51 331 4.0 5.0 0.00 0.00 0.66 95 1017.3
20260508070243 51 343 4.0 4.0 0.00 0.00 0.66 95 1017.3
20260508065743 51 336 1.0 1.0 0.00 0.00 0.66 96 1017.3
20260508065243 51 343 2.0 3.0 0.00 0.00 0.66 96 1017.3
20260508064743 51 345 4.0 6.0 0.00 0.00 0.66 95 1017.3
20260508064243 51 333 8.0 10.0 0.00 0.00 0.66 96 1017.3
20260508063743 51 309 4.0 4.0 0.00 0.00 0.66 96 1017.3
20260508063243 51 323 5.0 5.0 0.00 0.00 0.66 96 1017.3
20260508062743 51 327 3.0 4.0 0.00 0.00 0.66 94 1017.3
20260508062243 51 348 5.0 6.0 0.00 0.00 0.66 94 1017.3
20260508061743 51 340 3.0 3.0 0.00 0.00 0.66 94 1017.3
20260508061243 51 345 1.0 2.0 0.00 0.00 0.66 95 1017.3
20260508060743 51 339 0.0 0.0 0.00 0.00 0.66 96 1017.3
20260508060243 51 359 3.0 4.0 0.00 0.00 0.66 95 1017.3
20260508055743 51 339 4.0 6.0 0.00 0.00 0.66 96 1017.3
20260508055243 51 351 3.0 6.0 0.00 0.00 0.66 96 1017.3
20260508054743 51 352 4.0 5.0 0.00 0.00 0.66 95 1017.3
20260508054243 51 287 7.0 7.0 0.00 0.00 0.66 96 1017.3
20260508053743 51 338 4.0 6.0 0.00 0.00 0.66 96 1016.9
20260508053243 51 325 3.0 5.0 0.00 0.00 0.66 96 1016.9
20260508052743 51 0 0.0 3.0 0.00 0.00 0.66 96 1016.9
20260508052243 51 347 1.0 1.0 0.00 0.00 0.66 96 1016.9
20260508051743 51 14 2.0 2.0 0.00 0.00 0.66 96 1016.9
20260508051243 51 333 3.0 4.0 0.00 0.00 0.66 96 1016.9
20260508050743 51 272 2.0 3.0 0.00 0.00 0.66 96 1016.9
20260508050243 51 333 3.0 4.0 0.00 0.00 0.66 96 1016.9
20260508045743 51 347 3.0 5.0 0.00 0.00 0.66 97 1016.9
20260508045243 51 341 4.0 4.0 0.00 0.00 0.66 97 1016.9
20260508044743 51 327 1.0 2.0 0.00 0.00 0.66 97 1016.9
20260508044243 51 335 3.0 5.0 0.00 0.00 0.66 97 1016.9
20260508043743 51 333 2.0 5.0 0.05 0.00 0.66 97 1016.6
20260508043243 51 311 5.0 6.0 0.05 0.00 0.66 97 1016.6
20260508042743 51 342 5.0 6.0 0.00 0.00 0.65 97 1016.6
20260508042243 51 347 7.0 7.0 0.00 0.00 0.65 97 1016.6
20260508041743 51 323 6.0 7.0 0.05 0.00 0.65 97 1016.6
20260508041243 51 333 3.0 4.0 0.05 0.00 0.65 98 1016.3
20260508040743 51 341 4.0 6.0 0.05 0.00 0.63 97 1016.3
20260508040243 51 347 5.0 6.0 0.05 0.00 0.63 98 1016.3
20260508035743 51 335 1.0 1.0 0.00 0.00 0.63 97 1015.9
20260508035243 51 352 3.0 4.0 0.05 0.00 0.63 97 1015.9
20260508034743 51 343 1.0 1.0 0.10 0.00 0.63 97 1015.9
20260508034243 51 358 0.0 1.0 0.05 0.00 0.63 97 1015.9
20260508033743 51 339 1.0 1.0 0.10 0.00 0.61 98 1015.9
20260508033243 51 336 2.0 2.0 0.10 0.00 0.61 98 1015.9
20260508032743 51 324 3.0 3.0 0.10 0.00 0.60 98 1015.9
20260508032243 51 342 1.0 1.0 0.15 0.00 0.58 98 1015.9
20260508031743 51 333 0.0 1.0 0.20 0.00 0.57 98 1015.9
20260508031243 51 335 2.0 2.0 0.20 0.00 0.55 98 1015.9
20260508030743 51 332 2.0 2.0 0.20 0.00 0.55 97 1015.9
20260508030243 51 334 0.0 0.0 0.25 0.00 0.52 98 1015.9
20260508025743 51 337 1.0 1.0 0.25 0.00 0.50 98 1015.2
20260508025243 51 344 1.0 1.0 0.25 0.00 0.49 97 1015.2
20260508024743 52 336 1.0 1.0 0.25 0.00 0.46 98 1015.2
20260508024243 52 332 1.0 1.0 0.25 0.00 0.45 98 1015.2
20260508023743 52 330 1.0 2.0 0.20 0.00 0.41 97 1015.2
20260508023243 52 332 2.0 2.0 0.20 0.00 0.40 98 1015.2
20260508022743 52 336 3.0 3.0 0.31 0.00 0.38 98 1015.2
20260508022243 52 314 4.0 5.0 0.41 0.00 0.37 98 1015.2
20260508021743 52 309 2.0 2.0 0.31 0.00 0.33 97 1015.2
20260508021243 52 54 4.0 6.0 0.25 0.00 0.30 97 1015.9
20260508020743 52 354 2.0 3.0 0.25 0.00 0.27 97 1015.9
20260508020243 52 10 2.0 3.0 0.20 0.00 0.25 97 1015.9
20260508015743 52 316 2.0 2.0 0.25 0.00 0.23 97 1015.9
20260508015243 52 335 5.0 6.0 0.31 0.00 0.22 97 1015.9
20260508014743 53 310 4.0 5.0 0.31 0.00 0.20 97 1015.9
20260508014243 53 321 2.0 3.0 0.31 0.00 0.17 97 1015.9
20260508013743 53 338 6.0 9.0 0.25 0.00 0.15 97 1015.2
20260508013243 53 333 6.0 6.0 0.15 0.00 0.11 97 1015.2
20260508012743 53 331 1.0 2.0 0.15 0.00 0.11 97 1015.2
20260508012243 53 342 5.0 6.0 0.10 0.00 0.09 97 1015.2
20260508011743 53 341 4.0 5.0 0.10 0.00 0.07 97 1015.2
20260508011243 53 339 2.0 3.0 0.10 0.00 0.07 98 1015.2
20260508010743 53 301 3.0 4.0 0.10 0.00 0.07 98 1015.2
20260508010243 53 335 6.0 7.0 0.15 0.00 0.05 98 1015.2
20260508005743 54 312 3.0 3.0 0.10 0.00 0.05 97 1015.2
20260508005243 54 325 1.0 2.0 0.05 0.00 0.03 98 1015.2
20260508004743 54 331 3.0 5.0 0.05 0.00 0.02 98 1015.2
20260508004243 54 338 3.0 5.0 0.05 0.00 0.02 98 1015.2
20260508003743 54 333 4.0 6.0 0.05 0.00 0.01 98 1015.2
20260508003243 55 333 4.0 7.0 0.10 0.00 0.01 98 1015.2
20260508002743 55 344 4.0 5.0 0.10 0.00 0.00 98 1015.2
20260508002243 55 339 2.0 2.0 0.05 0.00 0.00 98 1015.2
20260508001743 55 331 1.0 1.0 0.05 0.00 0.00 98 1015.2
20260508000243 55 329 1.0 2.0 0.00 0.00 0.00 98 1015.2
20260507235743 55 323 1.0 1.0 0.00 0.00 0.00 98 1015.2
20260507235243 55 321 0.0 0.0 0.00 0.00 0.00 98 1015.2
20260507234743 55 320 1.0 1.0 0.00 0.00 0.00 98 1015.2
20260507234243 55 325 0.0 0.0 0.00 0.00 0.00 98 1015.2
20260507233743 55 321 0.0 0.0 0.00 0.00 0.00 98 1015.2
20260507233243 55 319 1.0 1.0 0.00 0.00 0.00 98 1015.2
20260507232743 55 307 1.0 1.0 0.00 0.00 0.00 98 1015.2
20260507232243 55 321 0.0 0.0 0.00 0.00 0.00 98 1015.2
20260507231743 55 324 0.0 0.0 0.00 0.00 0.00 98 1015.2
20260507231243 55 321 1.0 2.0 0.00 0.00 0.00 98 1015.2
20260507230743 55 328 0.0 0.0 0.00 0.00 0.00 98 1015.2
20260507230243 55 332 0.0 0.0 0.00 0.00 0.00 98 1015.2
20260507225743 55 333 0.0 1.0 0.00 0.00 0.00 98 1015.2
20260507225243 55 332 0.0 0.0 0.00 0.00 0.00 98 1015.2
20260507224743 54 332 0.0 0.0 0.00 0.00 0.00 98 1015.2
20260507224243 55 332 0.0 0.0 0.00 0.00 0.00 98 1015.2
20260507223743 55 329 0.0 0.0 0.00 0.00 0.00 98 1015.2
20260507223243 55 320 0.0 0.0 0.00 0.00 0.00 98 1015.2
20260507222743 55 311 1.0 2.0 0.00 0.00 0.00 98 1015.2
20260507222242 55 332 0.0 0.0 0.00 0.00 0.00 98 1015.2
20260507221743 55 325 0.0 0.0 0.00 0.00 0.00 98 1015.2
20260507221243 55 324 0.0 0.0 0.00 0.00 0.00 98 1015.2
20260507220743 55 312 2.0 4.0 0.00 0.00 0.00 98 1015.2
20260507220242 55 319 1.0 2.0 0.00 0.00 0.00 97 1015.2
20260507215742 55 304 4.0 5.0 0.00 0.00 0.40 98 1015.2
20260507215242 55 306 3.0 4.0 0.00 0.00 0.40 98 1015.2
20260507214742 55 313 3.0 3.0 0.00 0.00 0.40 98 1014.9
20260507214243 55 322 0.0 0.0 0.00 0.00 0.40 98 1014.9
20260507213742 54 316 2.0 3.0 0.00 0.00 0.40 98 1014.9
20260507213243 55 324 0.0 1.0 0.00 0.00 0.40 98 1014.9
20260507212743 55 325 1.0 1.0 0.00 0.00 0.40 98 1014.9
20260507212243 54 334 0.0 0.0 0.00 0.00 0.40 97 1014.6
20260507211742 54 350 1.0 1.0 0.00 0.00 0.40 97 1014.6
20260507211242 54 349 1.0 2.0 0.00 0.00 0.40 97 1014.9
20260507210743 54 352 2.0 3.0 0.00 0.00 0.40 97 1014.9
20260507210243 54 345 0.0 2.0 0.00 0.00 0.40 97 1014.9
20260507205742 55 341 4.0 4.0 0.00 0.00 0.40 97 1014.6
20260507205243 54 341 2.0 3.0 0.00 0.00 0.40 97 1014.6
20260507204743 54 321 1.0 2.0 0.00 0.00 0.40 97 1014.6
20260507204243 54 324 0.0 1.0 0.00 0.00 0.40 97 1014.6
20260507203743 55 324 0.0 0.0 0.00 0.00 0.40 97 1014.2
20260507203243 54 324 0.0 0.0 0.00 0.00 0.40 96 1014.2
20260507202743 54 311 1.0 1.0 0.00 0.00 0.40 96 1014.2
20260507202243 54 330 0.0 0.0 0.00 0.00 0.40 96 1014.2
20260507201743 54 304 1.0 2.0 0.00 0.00 0.40 96 1014.2
20260507201243 54 319 1.0 1.0 0.00 0.00 0.40 96 1014.2
20260507200743 54 270 3.0 4.0 0.00 0.00 0.40 96 1014.2